Rotterdam, Netherlands

6:10 PM CET on February 24, 2018 (GMT +0100)
Rotterdam

Weather History for EHRD - May, 2013

Change the Weather History Date:

Sunday, May 26, 2013

  Actual Average Record
Temperature  
Mean Temperature 50 °F -  
Max Temperature 55 °F 65 °F 80 °F (2005)
Min Temperature 44 °F 50 °F 39 °F (2004)
Degree Days  
Heating Degree Days 15    
Moisture  
Dew Point 45 °F    
Average Humidity 84    
Maximum Humidity 100    
Minimum Humidity 58    
Precipitation  
Precipitation 0.00 in - - ()
Sea Level Pressure  
Sea Level Pressure 29.95 in    
Wind  
Wind Speed 10 mph ()    
Max Wind Speed 16 mph    
Max Gust Speed -    
Visibility 6.6 miles    
Events Rain    
Averages and records for this station are not official NWS values.
T = Trace of Precipitation, MM = Missing Value Source: Averaged Metar Reports

Daily Weather History Graph

Daily Weather History Graph

Search for Another Location

Airport or City:

Trip Planner

Search our weather history database for the weather conditions in past years. The results will help you decide how hot, cold, wet, or windy it might be!

Date:

Astronomy

May. 26, 2013 Rise Set
Actual Time 5:34 AM CEST 9:45 PM CEST
Civil Twilight 4:49 AM CEST 10:30 PM CEST
Nautical Twilight 3:44 AM CEST 11:36 PM CEST
Astronomical Twilight 2:11 AM CEST 1:06 AM CEST
Moon 11:14 PM CEST (5/26) 6:48 AM CEST (5/26)
Length of Visible Light 17h 41m
Length of Day
16h 11m
Full, 98% of the Moon is Illuminated
May 26
Full
May 31
Last Quarter
Jun 8
New
Jun 16
First Quarter
Jun 23
Full

Hourly Weather History & Observations

Time (CEST) Temp. Windchill Dew Point Humidity Pressure Visibility Wind Dir Wind Speed Gust Speed Precip Events Conditions
12:25 AM 46.4 °F 41.5 °F 44.6 °F 93% 30.01 in 6.2 mi NW 10.4 mph - N/A Rain Rain
12:55 AM 46.4 °F 41.5 °F 44.6 °F 93% 29.98 in 6.2 mi NW 10.4 mph - N/A Rain Light Rain
1:25 AM 46.4 °F 41.9 °F 44.6 °F 93% 29.98 in 6.2 mi NW 9.2 mph - N/A Rain Light Rain
1:55 AM 46.4 °F 41.9 °F 44.6 °F 93% 29.98 in 6.2 mi NW 9.2 mph - N/A Rain Light Rain
2:00 AM 46 °F - 45 °F 94% 29.99 in 7 mi NW 11.2 mph - - Rain Light Rain
2:25 AM 46.4 °F 41.5 °F 44.6 °F 93% 29.98 in 6.2 mi NW 10.4 mph - N/A Rain Heavy Drizzle
2:55 AM 46.4 °F 41.1 °F 44.6 °F 93% 29.98 in 6.2 mi NNW 11.5 mph - N/A Rain Rain
3:25 AM 46.4 °F 41.5 °F 44.6 °F 93% 29.95 in 6.2 mi NNW 10.4 mph - N/A Rain Light Rain
3:55 AM 46.4 °F 41.1 °F 44.6 °F 93% 29.95 in 5.0 mi NNW 11.5 mph - N/A Rain Light Rain
4:25 AM 46.4 °F 41.5 °F 44.6 °F 93% 29.95 in 6.2 mi NNW 10.4 mph - N/A Rain Light Rain
4:55 AM 46.4 °F 41.1 °F 44.6 °F 93% 29.95 in 6.2 mi NNW 11.5 mph - N/A   Drizzle
5:00 AM 46 °F - 46 °F 97% 29.96 in 7 mi NNW 11.2 mph - - Rain Drizzle
5:25 AM 46.4 °F 40.4 °F 44.6 °F 93% 29.95 in 6.2 mi NNW 13.8 mph - N/A   Overcast
5:55 AM 46.4 °F 41.5 °F 44.6 °F 93% 29.95 in 6.2 mi NNW 10.4 mph - N/A   Overcast
6:25 AM 46.4 °F 41.5 °F 44.6 °F 93% 29.95 in 6.2 mi NNW 10.4 mph - N/A   Overcast
6:55 AM 46.4 °F 40.7 °F 44.6 °F 93% 29.95 in 6.2 mi NNW 12.7 mph - N/A   Overcast
7:25 AM 46.4 °F 41.5 °F 44.6 °F 93% 29.95 in 6.2 mi NNW 10.4 mph - N/A   Overcast
7:55 AM 48.2 °F - 44.6 °F 87% 29.95 in 6.2 mi NNW 11.5 mph - N/A   Overcast
8:00 AM 48 °F - 44 °F 81% 29.96 in 9 mi NNW 13.4 mph - -   Partly Cloudy
8:25 AM 48.2 °F - 44.6 °F 87% 29.95 in 6.2 mi NNW 13.8 mph - N/A   Overcast
8:55 AM 48.2 °F - 44.6 °F 87% 29.95 in 6.2 mi NNW 13.8 mph - N/A   Overcast
9:25 AM 48.2 °F - 42.8 °F 82% 29.95 in 6.2 mi NNW 15.0 mph - N/A   Overcast
9:55 AM 48.2 °F - 42.8 °F 82% 29.95 in 6.2 mi NNW 12.7 mph - N/A   Overcast
10:25 AM 50.0 °F - 44.6 °F 82% 29.95 in 6.2 mi NNW 13.8 mph - N/A   Overcast
10:55 AM 50.0 °F - 44.6 °F 82% 29.95 in 6.2 mi NNW 12.7 mph - N/A   Mostly Cloudy
11:00 AM 51 °F - 45 °F 73% 29.97 in 9 mi NNW 13.4 mph - -   Overcast
11:25 AM 51.8 °F - 44.6 °F 76% 29.95 in 6.2 mi NNW 15.0 mph - N/A   Mostly Cloudy
11:55 AM 51.8 °F - 44.6 °F 76% 29.95 in 6.2 mi NNW 16.1 mph - N/A   Mostly Cloudy
12:25 PM 51.8 °F - 44.6 °F 76% 29.95 in 6.2 mi NNW 13.8 mph - N/A   Overcast
12:55 PM 51.8 °F - 44.6 °F 76% 29.95 in 6.2 mi NNW 13.8 mph - N/A   Mostly Cloudy
1:25 PM 51.8 °F - 44.6 °F 76% 29.95 in 6.2 mi NNW 12.7 mph - N/A   Scattered Clouds
1:55 PM 51.8 °F - 44.6 °F 76% 29.95 in 6.2 mi NNW 11.5 mph - N/A   Partly Cloudy
2:00 PM 52 °F - 45 °F 69% 29.97 in 12 mi NNW 13.4 mph - -   Partly Cloudy
2:25 PM 51.8 °F - 44.6 °F 76% 29.95 in 6.2 mi NW 10.4 mph - N/A   Partly Cloudy
2:55 PM 53.6 °F - 44.6 °F 72% 29.95 in 6.2 mi NW 12.7 mph - N/A   Unknown
3:25 PM 53.6 °F - 46.4 °F 77% 29.95 in 6.2 mi WNW 12.7 mph - N/A   Unknown
3:55 PM 53.6 °F - 44.6 °F 72% 29.95 in 6.2 mi NW 13.8 mph - N/A   Unknown
4:25 PM 55.4 °F - 44.6 °F 67% 29.95 in 6.2 mi NW 12.7 mph - N/A   Unknown
4:55 PM 53.6 °F - 44.6 °F 72% 29.95 in 6.2 mi NW 13.8 mph - N/A   Unknown
5:00 PM 54 °F - 43 °F 58% 29.95 in 15 mi NW 11.2 mph - -   Overcast
5:25 PM 53.6 °F - 42.8 °F 67% 29.92 in 6.2 mi NW 12.7 mph - N/A   Unknown
5:55 PM 53.6 °F - 42.8 °F 67% 29.92 in 6.2 mi NW 12.7 mph - N/A   Unknown
6:25 PM 53.6 °F - 44.6 °F 72% 29.92 in 6.2 mi NW 13.8 mph - N/A   Unknown
6:55 PM 51.8 °F - 44.6 °F 76% 29.92 in 6.2 mi WNW 9.2 mph - N/A   Unknown
7:25 PM 51.8 °F - 44.6 °F 76% 29.92 in 6.2 mi WNW 10.4 mph - N/A   Unknown
7:55 PM 50.0 °F - 44.6 °F 82% 29.92 in 6.2 mi WNW 9.2 mph - N/A   Unknown
8:00 PM 50 °F - 45 °F 77% 29.93 in 10 mi WNW 8.9 mph - -   Partly Cloudy
8:25 PM 50.0 °F - 44.6 °F 82% 29.92 in 6.2 mi WNW 8.1 mph - N/A   Unknown
8:55 PM 50.0 °F - 44.6 °F 82% 29.92 in 6.2 mi WNW 8.1 mph - N/A   Unknown
9:25 PM 48.2 °F - 44.6 °F 87% 29.92 in 6.2 mi WNW 6.9 mph - N/A   Unknown
9:55 PM 46.4 °F 42.9 °F 44.6 °F 93% 29.92 in 6.2 mi WNW 6.9 mph - N/A   Unknown
10:25 PM 46.4 °F 43.5 °F 44.6 °F 93% 29.92 in 6.2 mi West 5.8 mph - N/A   Unknown
10:55 PM 46.4 °F 43.5 °F 44.6 °F 93% 29.92 in 6.2 mi West 5.8 mph - N/A   Unknown
11:00 PM 45 °F - 44 °F 94% 29.92 in 7 mi West 6.7 mph - -  
11:25 PM 46.4 °F 44.3 °F 44.6 °F 93% 29.89 in 6.2 mi WNW 4.6 mph - N/A   Unknown
11:55 PM 44.6 °F 43.1 °F 44.6 °F 100% 29.89 in 6.2 mi WNW 3.5 mph - N/A   Unknown